Weather History for KGUC - March, 2012

Change the Weather History Date:

Sunday, March 11, 2012

  Actual Average Record
Temperature  
Mean Temperature 36 °F -  
Max Temperature 50 °F 38 °F 51 °F (2003)
Min Temperature 21 °F 13 °F -2 °F (1997)
Degree Days  
Heating Degree Days 30    
Moisture  
Dew Point 17 °F    
Average Humidity 52    
Maximum Humidity 86    
Minimum Humidity 22    
Precipitation  
Precipitation 0.00 in - - ()
Sea Level Pressure  
Sea Level Pressure 29.92 in    
Wind  
Wind Speed 4 mph (WSW)    
Max Wind Speed 21 mph    
Max Gust Speed 29 mph    
Visibility 10 miles    
Events      
Averages and records for this station are not official NWS values.
T = Trace of Precipitation, MM = Missing Value Source: NWS Daily Summary

Daily Weather History Graph

Daily Weather History Graph

Search for Another Location

Airport or City:

Trip Planner

Search our weather history database for the weather conditions in past years. The results will help you decide how hot, cold, wet, or windy it might be!

Date:

Astronomy

Mar. 11, 2012 Rise Set
Actual Time 7:24 AM MDT 7:11 PM MDT
Civil Twilight 6:57 AM MDT 7:37 PM MDT
Nautical Twilight 6:27 AM MDT 8:08 PM MDT
Astronomical Twilight 5:56 AM MDT 8:39 PM MDT
Moon 11:34 PM MDT (3/11) 9:05 AM MDT (3/11)
Length of Visible Light 12h 40m
Length of Day
11h 47m
Waning Gibbous, 85% of the Moon is Illuminated
Mar 11
Waning Gibbous
Mar 14
Last Quarter
Mar 22
New
Mar 30
First Quarter
Apr 6
Full

Hourly Weather History & Observations

Time (MDT) Temp. Windchill Dew Point Humidity Pressure Visibility Wind Dir Wind Speed Gust Speed Precip Events Conditions
12:15 AM 28.4 °F - 21.2 °F 74% 29.94 in 10.0 mi Calm Calm - N/A   Overcast
12:35 AM 28.4 °F 24.6 °F 21.2 °F 74% 29.94 in 10.0 mi North 3.5 mph - N/A   Overcast
12:55 AM 28.4 °F - 21.2 °F 74% 29.94 in 10.0 mi Calm Calm - N/A   Overcast
1:15 AM 28.4 °F - 21.2 °F 74% 29.94 in 10.0 mi Calm Calm - N/A   Overcast
1:35 AM 28.4 °F - 21.2 °F 74% 29.94 in 10.0 mi Calm Calm - N/A   Overcast
1:55 AM 28.4 °F - 19.4 °F 69% 29.93 in 10.0 mi Calm Calm - N/A   Mostly Cloudy
3:15 AM 26.6 °F - 19.4 °F 74% 29.92 in 10.0 mi Calm Calm - N/A   Partly Cloudy
3:35 AM 26.6 °F - 21.2 °F 80% 29.92 in 10.0 mi Calm Calm - N/A   Clear
3:55 AM 26.6 °F - 21.2 °F 80% 29.91 in 10.0 mi Calm Calm - N/A   Partly Cloudy
4:15 AM 26.6 °F 21.2 °F 19.4 °F 74% 29.91 in 10.0 mi NNW 4.6 mph - N/A   Mostly Cloudy
4:35 AM 24.8 °F 19.1 °F 19.4 °F 80% 29.90 in 10.0 mi North 4.6 mph - N/A   Partly Cloudy
4:55 AM 24.8 °F - 19.4 °F 80% 29.90 in 10.0 mi Calm Calm - N/A   Clear
5:15 AM 23.0 °F - 17.6 °F 80% 29.90 in 10.0 mi Calm Calm - N/A   Clear
6:35 AM 23.0 °F - 17.6 °F 80% 29.90 in 10.0 mi Calm Calm - N/A   Clear
6:55 AM 21.2 °F - 17.6 °F 86% 29.90 in 10.0 mi Calm Calm - N/A   Clear
7:15 AM 23.0 °F - 15.8 °F 74% 29.90 in 10.0 mi Calm Calm - N/A   Clear
7:35 AM 23.0 °F - 17.6 °F 80% 29.91 in 10.0 mi Calm Calm - N/A   Clear
7:55 AM 23.0 °F - 15.8 °F 74% 29.92 in 10.0 mi Calm Calm - N/A   Clear
8:15 AM 23.0 °F - 17.6 °F 80% 29.92 in 10.0 mi Calm Calm - N/A   Clear
8:35 AM 23.0 °F - 17.6 °F 80% 29.93 in 10.0 mi Calm Calm - N/A   Clear
8:55 AM 24.8 °F - 17.6 °F 74% 29.92 in 10.0 mi Calm Calm - N/A   Clear
9:15 AM 26.6 °F - 17.6 °F 69% 29.93 in 10.0 mi Calm Calm - N/A   Clear
10:15 AM 33.8 °F - 19.4 °F 56% 29.92 in 10.0 mi Calm Calm - N/A   Clear
10:35 AM 37.4 °F - 19.4 °F 48% 29.92 in 10.0 mi Calm Calm - N/A   Clear
10:55 AM 41.0 °F 34.7 °F 17.6 °F 39% 29.91 in 10.0 mi SW 10.4 mph - N/A   Clear
11:15 AM 42.8 °F 35.4 °F 15.8 °F 34% 29.91 in 10.0 mi WSW 15.0 mph - N/A   Clear
11:35 AM 44.6 °F 37.2 °F 17.6 °F 34% 29.91 in 10.0 mi SW 17.3 mph - N/A   Clear
11:55 AM 44.6 °F 39.2 °F 17.6 °F 34% 29.91 in 10.0 mi WSW 10.4 mph 18.4 mph N/A   Clear
12:15 PM 46.4 °F 40.1 °F 8.6 °F 22% 29.90 in 10.0 mi SW 15.0 mph 21.9 mph N/A   Clear
12:35 PM 46.4 °F 39.8 °F 10.4 °F 23% 29.89 in 10.0 mi SSW 16.1 mph 26.5 mph N/A   Clear
12:55 PM 48.2 °F - 17.6 °F 30% 29.89 in 10.0 mi WSW 15.0 mph 24.2 mph N/A   Clear
1:15 PM 48.2 °F - 15.8 °F 27% 29.89 in 10.0 mi SW 11.5 mph 26.5 mph N/A   Clear
1:35 PM 48.2 °F - 17.6 °F 30% 29.88 in 10.0 mi WSW 16.1 mph 20.7 mph N/A   Clear
1:55 PM 48.2 °F - 15.8 °F 27% 29.87 in 10.0 mi SW 17.3 mph 26.5 mph N/A   Clear
2:15 PM 48.2 °F - 15.8 °F 27% 29.87 in 10.0 mi WSW 18.4 mph 25.3 mph N/A   Clear
2:35 PM 48.2 °F - 14.0 °F 25% 29.87 in 10.0 mi WSW 19.6 mph 27.6 mph N/A   Clear
3:55 PM 50.0 °F - 12.2 °F 22% 29.87 in 10.0 mi WSW 17.3 mph 25.3 mph N/A   Clear
4:15 PM 48.2 °F - 12.2 °F 24% 29.87 in 10.0 mi WSW 20.7 mph 28.8 mph N/A   Clear
4:55 PM 48.2 °F - 10.4 °F 22% 29.88 in 10.0 mi WSW 20.7 mph 26.5 mph N/A   Clear
5:35 PM 48.2 °F - 10.4 °F 22% 29.88 in 10.0 mi WSW 17.3 mph 24.2 mph N/A   Clear
5:55 PM 48.2 °F - 10.4 °F 22% 29.89 in 10.0 mi WSW 16.1 mph 24.2 mph N/A   Clear
6:15 PM 48.2 °F - 10.4 °F 22% 29.90 in 10.0 mi WSW 16.1 mph 21.9 mph N/A   Clear
6:35 PM 48.2 °F - 10.4 °F 22% 29.90 in 10.0 mi WSW 15.0 mph 20.7 mph N/A   Clear
7:35 PM 42.8 °F 38.0 °F 15.8 °F 34% 29.93 in 10.0 mi West 8.1 mph - N/A   Clear
7:55 PM 41.0 °F 36.4 °F 17.6 °F 39% 29.94 in 10.0 mi West 6.9 mph - N/A   Clear
8:15 PM 41.0 °F 37.1 °F 15.8 °F 36% 29.94 in 10.0 mi WNW 5.8 mph - N/A   Clear
8:55 PM 39.2 °F - 15.8 °F 39% 29.95 in 10.0 mi Calm Calm - N/A   Clear
9:15 PM 35.6 °F - 15.8 °F 44% 29.96 in 10.0 mi Calm Calm - N/A   Clear
9:35 PM 35.6 °F - 17.6 °F 48% 29.96 in 10.0 mi Calm Calm - N/A   Clear
9:55 PM 35.6 °F - 15.8 °F 44% 29.97 in 10.0 mi Calm Calm - N/A   Clear
10:35 PM 32.0 °F 26.4 °F 17.6 °F 55% 29.98 in 10.0 mi NNW 5.8 mph - N/A   Clear
11:15 PM 30.2 °F 22.6 °F 15.8 °F 55% 29.99 in 10.0 mi North 8.1 mph - N/A   Clear
11:35 PM 28.4 °F 24.6 °F 17.6 °F 64% 29.99 in 10.0 mi ESE 3.5 mph - N/A   Clear
11:55 PM 28.4 °F - 17.6 °F 64% 30.00 in 10.0 mi Calm Calm - N/A   Clear
12:15 AM 28.4 °F - 15.8 °F 59% 30.01 in 10.0 mi Calm Calm - N/A   Clear
12:35 AM 28.4 °F - 15.8 °F 59% 30.01 in 10.0 mi Calm Calm - N/A   Clear
12:55 AM 24.8 °F 20.5 °F 15.8 °F 69% 30.01 in 10.0 mi East 3.5 mph - N/A   Clear